{"data":{"norad_id":52560,"intl_designator":"2022-051AD","name":"STARLINK-3956","alt_names":[],"object_type":"PAYLOAD","status":"ACTIVE","operator":null,"country":"US","launch_date":"2022-05-13","launch_site_code":"AFWTR","launch_vehicle":null,"mission":null,"orbit_class":"UNKNOWN","rcs_meters":null,"size_class":null,"mass_kg":null,"dimensions":null,"purposes":["comms"],"wikipedia_slug":null,"has_3d_model":false,"image_url":null,"decayed_at":null,"tle_current":{"epoch":"2026-05-25T03:44:15.110016Z","epoch_age_seconds":61924,"freshness":"FRESH","line1":"1 52560U 22051AD  26145.15573044 -.00000631  00000+0 -21545-4 0  9997","line2":"2 52560  53.2128 135.8516 0001010  75.1527 284.9577 15.08839724223128","mean_motion":15.08839724,"eccentricity":0.000101,"inclination_deg":53.2128,"raan_deg":135.8516,"arg_perigee_deg":75.1527,"mean_anomaly_deg":284.9577,"bstar":-2.1545e-5,"rev_number":22312,"period_min":95.437572135395,"perigee_km":539.04552658133,"apogee_km":540.44293859031,"semimajor_km":6917.8812325858,"source":"CELESTRAK","updated_at":"2026-05-25T13:38:17.166329Z"}}}